TimeEST,TemperatureF,Dew PointF,Humidity,Sea Level PressureIn,VisibilityMPH,Wind Direction,Wind SpeedMPH,Gust SpeedMPH,PrecipitationIn,Events,Conditions,WindDirDegrees,DateUTC
12:29 AM,33.8,28.4,81,29.69,10.0,West,10.4,-,0.00,,Overcast,260,2014-01-12 05:29:00
12:56 AM,32.9,28.0,82,29.75,10.0,West,15.0,21.9,0.00,,Overcast,260,2014-01-12 05:56:00
1:04 AM,33.8,28.4,81,29.69,10.0,West,12.7,21.9,N/A,,Overcast,260,2014-01-12 06:04:00
1:56 AM,32.9,27.1,79,29.78,10.0,WSW,9.2,-,N/A,,Overcast,250,2014-01-12 06:56:00
2:56 AM,32.9,27.1,79,29.80,9.0,WSW,9.2,-,N/A,,Overcast,250,2014-01-12 07:56:00
3:56 AM,32.0,28.0,85,29.83,10.0,West,9.2,-,N/A,,Overcast,260,2014-01-12 08:56:00
4:33 AM,30.2,28.4,93,29.77,3.0,WSW,8.1,-,N/A,,Overcast,240,2014-01-12 09:33:00
4:39 AM,30.2,28.4,93,29.77,2.5,WSW,8.1,-,N/A,,Overcast,250,2014-01-12 09:39:00
4:56 AM,31.1,30.0,96,29.85,2.0,WSW,6.9,-,N/A,,Overcast,240,2014-01-12 09:56:00
5:04 AM,30.2,30.2,100,29.78,2.0,WSW,5.8,-,N/A,,Overcast,250,2014-01-12 10:04:00
5:18 AM,30.2,30.2,100,29.79,4.0,WSW,6.9,-,N/A,,Overcast,250,2014-01-12 10:18:00
5:30 AM,30.2,30.2,100,29.79,6.0,WSW,6.9,-,N/A,,Overcast,250,2014-01-12 10:30:00
5:45 AM,30.2,30.2,100,29.80,8.0,WSW,8.1,-,N/A,,Overcast,250,2014-01-12 10:45:00
5:56 AM,31.1,29.1,92,29.88,9.0,WSW,11.5,17.3,N/A,,Overcast,240,2014-01-12 10:56:00
6:56 AM,32.0,28.4,87,29.84,10.0,West,8.1,-,N/A,,Overcast,260,2014-01-12 11:56:00
7:56 AM,32.0,28.0,85,29.95,10.0,West,11.5,-,N/A,,Overcast,260,2014-01-12 12:56:00
8:56 AM,32.0,28.0,85,29.99,9.0,WSW,5.8,-,N/A,,Overcast,250,2014-01-12 13:56:00
9:56 AM,32.0,28.0,85,30.03,9.0,West,5.8,-,N/A,,Overcast,260,2014-01-12 14:56:00
10:56 AM,32.0,28.0,85,30.06,9.0,WSW,10.4,16.1,N/A,,Overcast,240,2014-01-12 15:56:00
11:56 AM,32.9,28.0,82,30.03,9.0,WSW,10.4,-,N/A,,Overcast,240,2014-01-12 16:56:00
12:56 PM,32.9,27.1,79,30.04,10.0,WSW,9.2,19.6,N/A,,Overcast,240,2014-01-12 17:56:00
1:56 PM,32.9,27.1,79,30.05,10.0,SW,15.0,-,N/A,,Overcast,230,2014-01-12 18:56:00
2:56 PM,34.0,27.1,76,30.06,10.0,WSW,9.2,-,N/A,,Overcast,240,2014-01-12 19:56:00
3:56 PM,34.0,27.1,76,30.08,10.0,SW,5.8,-,N/A,,Overcast,220,2014-01-12 20:56:00
4:56 PM,32.9,26.1,76,30.09,10.0,Calm,Calm,-,N/A,,Mostly Cloudy,0,2014-01-12 21:56:00
5:09 PM,33.8,26.6,75,30.01,10.0,Variable,4.6,-,N/A,,Scattered Clouds,0,2014-01-12 22:09:00
5:56 PM,32.0,26.1,79,30.09,10.0,South,4.6,-,N/A,,Clear,170,2014-01-12 22:56:00
6:56 PM,31.1,26.1,82,30.11,10.0,South,4.6,-,N/A,,Clear,180,2014-01-12 23:56:00
7:56 PM,31.1,26.1,82,30.09,10.0,Calm,Calm,-,N/A,,Clear,0,2014-01-13 00:56:00
8:56 PM,30.0,26.1,85,30.09,10.0,Calm,Calm,-,N/A,,Clear,0,2014-01-13 01:56:00
9:56 PM,31.1,27.1,85,30.07,10.0,South,6.9,-,N/A,,Clear,170,2014-01-13 02:56:00
10:56 PM,31.1,27.1,85,30.07,10.0,SSE,6.9,-,N/A,,Clear,160,2014-01-13 03:56:00
11:56 PM,31.1,27.1,85,30.04,10.0,Calm,Calm,-,N/A,,Clear,0,2014-01-13 04:56:00